Date String (YYYY-MM-DD hh:mm:ss) UTC,Instrument flags,absolute air pressure of the measurement (hPa),sample flow rate (lpm),inlet stack bypass flow (lpm),air temperature of the measurement (°C),ambient temperature measured by the external sensor (°C),aerosol sample conditioner tube jacket temperature (°C),OPC LED temperature (°C),internal box temperature (°C),relative humidity of the measurement (%),span deviation,mass concentration of particles derived from Lorenz-Mie calculation of OPC scattering (μg/m³),mass concentration of particles derived from Lorenz-Mie calculation of OPC scattering (μg/m³),mass concentration of particles derived from Lorenz-Mie calculation of OPC scattering (μg/m³)
DateTimeUTC,F1_M11,P_M11,Q1_M11,Q2_M11,T1_M11,T2_M11,T3_M11,T4_M11,T5_M11,U1_M11,ZSPAN_M11,X2_M11,X0_M11,X1_M11
2024-03-07 00:00:00,SystemResetWarning,0819.9,5.00,000.00,022.5,021.8,000.0,030.9,024.3,09.0,0000.0,0001.70,0003.99,0000.94
2024-03-07 00:01:00,SystemResetWarning,0820.0,5.00,000.00,022.5,021.8,000.0,030.9,024.3,09.1,0000.0,0001.65,0003.37,0000.92
2024-03-07 00:02:00,SystemResetWarning,0819.8,5.00,000.00,022.5,021.8,000.0,030.9,024.3,09.2,0000.0,0001.69,0003.57,0000.91
2024-03-07 00:03:00,SystemResetWarning,0819.9,5.00,000.00,022.5,021.8,000.0,030.9,024.3,09.2,0000.0,0001.73,0004.26,0000.90
2024-03-07 00:04:00,SystemResetWarning,0819.8,5.00,000.00,022.5,021.8,000.0,030.9,024.3,09.1,0000.0,0001.71,0004.11,0000.91
2024-03-07 00:05:00,SystemResetWarning,0819.8,5.00,000.00,022.5,021.8,000.0,031.0,024.3,09.2,0000.0,0001.72,0004.25,0000.91
2024-03-07 00:06:00,SystemResetWarning,0819.8,5.00,000.00,022.5,021.8,000.0,031.0,024.3,09.2,0000.0,0001.77,0004.50,0000.92
2024-03-07 00:07:00,SystemResetWarning,0819.9,4.99,000.00,022.5,021.8,000.0,031.0,024.3,09.4,0000.0,0001.76,0004.48,0000.91
2024-03-07 00:08:00,SystemResetWarning,0819.9,5.00,000.00,022.5,021.8,000.0,031.0,024.3,09.4,0000.0,0001.77,0004.52,0000.90
2024-03-07 00:09:00,SystemResetWarning,0819.8,5.01,000.00,022.5,021.8,000.0,031.0,024.3,09.4,0000.0,0001.75,0004.47,0000.90
2024-03-07 00:10:00,SystemResetWarning,0819.9,5.01,000.00,022.5,021.8,000.0,031.0,024.3,09.4,0000.0,0001.74,0004.39,0000.88
2024-03-07 00:11:00,SystemResetWarning,0820.0,4.99,000.00,022.5,021.8,000.0,031.0,024.3,09.4,0000.0,0001.75,0004.36,0000.89
2024-03-07 00:12:00,SystemResetWarning,0819.8,5.00,000.00,022.5,021.8,000.0,031.0,024.3,09.5,0000.0,0001.77,0004.49,0000.91
2024-03-07 00:13:00,SystemResetWarning,0820.0,4.99,000.00,022.5,021.8,000.0,031.0,024.3,09.5,0000.0,0001.76,0004.54,0000.92
2024-03-07 00:14:00,SystemResetWarning,0819.9,5.00,000.00,022.5,021.8,000.0,031.0,024.3,09.5,0000.0,0001.74,0004.01,0000.94
2024-03-07 00:15:00,SystemResetWarning,0819.9,5.00,000.00,022.5,021.8,000.0,031.0,024.3,09.4,0000.0,0001.74,0004.23,0000.95
2024-03-07 00:16:00,SystemResetWarning,0820.1,5.00,000.00,022.5,021.8,000.0,031.0,024.3,09.4,0000.0,0001.79,0005.99,0000.96
2024-03-07 00:17:00,SystemResetWarning,0819.8,5.00,000.00,022.5,021.8,000.0,031.0,024.3,09.3,0000.0,0001.74,0005.85,0000.96
2024-03-07 00:18:00,SystemResetWarning,0819.9,5.00,000.00,022.5,021.8,000.0,031.0,024.3,09.3,0000.0,0001.72,0005.86,0000.95
2024-03-07 00:19:00,SystemResetWarning,0820.0,5.01,000.00,022.5,021.8,000.0,031.0,024.3,09.4,0000.0,0001.67,0005.78,0000.95
2024-03-07 00:20:00,SystemResetWarning,0820.1,5.00,000.00,022.5,021.8,000.0,031.0,024.3,09.5,0000.0,0001.70,0005.86,0000.94
2024-03-07 00:21:00,SystemResetWarning,0820.0,5.01,000.00,022.5,021.8,000.0,031.0,024.3,09.4,0000.0,0001.74,0006.00,0000.95
2024-03-07 00:22:00,SystemResetWarning,0820.1,5.00,000.00,022.5,021.8,000.0,031.0,024.3,09.5,0000.0,0001.76,0006.18,0000.95
2024-03-07 00:23:00,SystemResetWarning,0820.1,5.00,000.00,022.5,021.8,000.0,031.0,024.3,09.5,0000.0,0001.71,0006.00,0000.94
2024-03-07 00:24:00,SystemResetWarning,0820.1,5.00,000.00,022.5,021.8,000.0,031.0,024.3,09.5,0000.0,0001.71,0005.85,0000.94
2024-03-07 00:25:00,SystemResetWarning,0820.0,5.00,000.00,022.5,021.8,000.0,031.0,024.3,09.5,0000.0,0001.71,0005.76,0000.94
2024-03-07 00:26:00,SystemResetWarning,0820.0,5.00,000.00,022.5,021.8,000.0,031.0,024.3,09.5,0000.0,0001.68,0005.23,0000.93
2024-03-07 00:27:00,SystemResetWarning,0820.0,5.00,000.00,022.5,021.8,000.0,031.0,024.3,09.3,0000.0,0001.63,0003.27,0000.92
2024-03-07 00:28:00,SystemResetWarning,0820.1,5.00,000.00,022.5,021.7,000.0,030.9,024.3,09.4,0000.0,0001.72,0003.50,0000.93
2024-03-07 00:29:00,SystemResetWarning,0820.1,5.00,000.00,022.5,021.7,000.0,030.9,024.3,09.5,0000.0,0001.74,0003.46,0000.92
2024-03-07 00:30:00,SystemResetWarning,0820.1,5.00,000.00,022.5,021.7,000.0,030.9,024.3,09.4,0000.0,0001.72,0003.32,0000.93
2024-03-07 00:31:00,SystemResetWarning,0820.0,5.00,000.00,022.5,021.7,000.0,030.9,024.3,09.4,0000.0,0001.75,0003.45,0000.95
2024-03-07 00:32:00,SystemResetWarning,0820.0,5.00,000.00,022.5,021.7,000.0,030.9,024.3,09.5,0000.0,0001.83,0003.67,0000.97
2024-03-07 00:33:00,SystemResetWarning,0820.1,4.99,000.00,022.5,021.7,000.0,030.9,024.2,09.5,0000.0,0001.81,0003.61,0000.96
2024-03-07 00:34:00,SystemResetWarning,0820.1,5.00,000.00,022.5,021.7,000.0,030.9,024.2,09.6,0000.0,0001.81,0003.60,0000.96
2024-03-07 00:35:00,SystemResetWarning,0820.1,5.00,000.00,022.4,021.7,000.0,030.9,024.2,09.6,0000.0,0001.84,0003.65,0000.97
2024-03-07 00:36:00,SystemResetWarning,0820.1,5.00,000.00,022.4,021.7,000.0,030.9,024.2,09.7,0000.0,0001.84,0003.87,0000.97
2024-03-07 00:37:00,SystemResetWarning,0820.1,4.99,000.00,022.4,021.7,000.0,030.9,024.2,09.8,0000.0,0001.84,0003.93,0000.97
2024-03-07 00:38:00,SystemResetWarning,0820.1,5.00,000.00,022.4,021.6,000.0,030.9,024.2,09.9,0000.0,0001.86,0004.02,0000.97
2024-03-07 00:39:00,SystemResetWarning,0820.1,5.00,000.00,022.4,021.6,000.0,030.9,024.2,09.9,0000.0,0001.84,0003.97,0000.97
2024-03-07 00:40:00,SystemResetWarning,0820.1,5.00,000.00,022.4,021.6,000.0,030.9,024.2,10.0,0000.0,0001.82,0003.91,0000.98
2024-03-07 00:41:00,SystemResetWarning,0820.2,5.00,000.00,022.4,021.6,000.0,030.9,024.2,10.1,0000.0,0001.85,0004.41,0000.98
2024-03-07 00:42:00,SystemResetWarning,0820.3,5.00,000.00,022.4,021.6,000.0,030.9,024.2,10.1,0000.0,0001.83,0004.56,0000.98
2024-03-07 00:43:00,SystemResetWarning,0820.3,5.01,000.00,022.4,021.6,000.0,030.9,024.2,10.1,0000.0,0001.78,0005.78,0000.97
2024-03-07 00:44:00,SystemResetWarning,0820.2,5.01,000.00,022.4,021.6,000.0,030.9,024.1,10.1,0000.0,0001.77,0005.63,0000.98
2024-03-07 00:45:00,SystemResetWarning,0820.3,5.00,000.00,022.4,021.5,000.0,030.9,024.1,10.1,0000.0,0001.82,0006.08,0000.99
2024-03-07 00:46:00,SystemResetWarning,0820.2,5.00,000.00,022.3,021.5,000.0,030.9,024.1,10.2,0000.0,0001.84,0006.24,0000.99
2024-03-07 00:47:00,SystemResetWarning,0820.2,5.00,000.00,022.3,021.5,000.0,030.9,024.1,10.1,0000.0,0001.81,0006.33,0000.98
2024-03-07 00:48:00,SystemResetWarning,0820.2,4.99,000.00,022.3,021.5,000.0,030.8,024.1,10.2,0000.0,0001.78,0006.18,0000.97
2024-03-07 00:49:00,SystemResetWarning,0820.2,4.99,000.00,022.3,021.5,000.0,030.8,024.1,10.3,0000.0,0001.75,0006.82,0000.97
2024-03-07 00:50:00,SystemResetWarning,0820.2,4.99,000.00,022.3,021.5,000.0,030.8,024.1,10.4,0000.0,0001.76,0007.18,0000.96
2024-03-07 00:51:00,SystemResetWarning,0820.3,5.00,000.00,022.3,021.5,000.0,030.8,024.1,10.4,0000.0,0001.76,0007.60,0000.95
2024-03-07 00:52:00,SystemResetWarning,0820.3,5.00,000.00,022.3,021.5,000.0,030.8,024.1,10.3,0000.0,0001.73,0007.93,0000.95
2024-03-07 00:53:00,SystemResetWarning,0820.3,5.01,000.00,022.3,021.5,000.0,030.8,024.0,10.4,0000.0,0001.72,0007.82,0000.93
2024-03-07 00:54:00,SystemResetWarning,0820.3,5.01,000.00,022.3,021.5,000.0,030.8,024.0,10.5,0000.0,0001.73,0007.20,0000.93
2024-03-07 00:55:00,SystemResetWarning,0820.3,5.00,000.00,022.3,021.4,000.0,030.8,024.0,10.5,0000.0,0001.74,0007.24,0000.92
2024-03-07 00:56:00,SystemResetWarning,0820.3,4.99,000.00,022.3,021.4,000.0,030.8,024.0,10.5,0000.0,0001.71,0006.93,0000.92
2024-03-07 00:57:00,SystemResetWarning,0820.3,4.99,000.00,022.3,021.4,000.0,030.8,024.0,10.5,0000.0,0001.70,0006.99,0000.91
2024-03-07 00:58:00,SystemResetWarning,0820.3,5.01,000.00,022.3,021.4,000.0,030.8,024.0,10.6,0000.0,0001.71,0006.84,0000.91
2024-03-07 00:59:00,SystemResetWarning,0820.3,5.01,000.00,022.2,021.4,000.0,030.8,024.0,10.6,0000.0,0001.75,0007.03,0000.91
